Regional Weather Roundup
Issued by NWS Charleston, SC

Current Version | Previous Version | Graphics & Text | Print | Product List | Glossary On
Versions: 1 2 3 4 5 6 7 8 9 10 11 12 13 14 15 16 17 18 19 20 21 22 23 24 25 26 27 28 29 30 31 32 33 34 35 36 37 38 39 40 41 42 43 44 45 46 47 48 49 50
000
ASUS42 KCHS 021810
RWRCHS
REGIONAL WEATHER ROUNDUP
NATIONAL WEATHER SERVICE CHARLESTON SC
200 PM EDT TUE SEP 02 2014

NOTE: "FAIR" INDICATES FEW OR NO CLOUDS BELOW 12,000 FEET WITH NO
SIGNIFICANT WEATHER AND/OR OBSTRUCTIONS TO VISIBILITY.

NOT ALL STATIONS ARE QUALITY CONTROLLED BY THE NATIONAL
WEATHER SERVICE. USE DATA WITH CAUTION...ESPECIALLY
DEWPOINT OBSERVATIONS.

SCZ027-030-031-034>040-042>050-021900-
...SOUTH CAROLINA...

CITY           SKY/WX    TMP DP  RH WIND       PRES   REMARKS
N CHARLESTON   PTSUNNY   92  74  55 S10       30.07F HX 101
6HR MIN TEMP:  82; 6HR MAX TEMP:  94;

WATERFRONT PRK   N/A     86 N/A N/A S13         N/A
FORT JOHNSON   NOT AVBL
MOUNT PLEASANT FAIR      90  73  58 S12       30.08F HX  98
JOHNS ISLAND   PTCLDY    90  75  62 S10       30.08F HX 100
PINOPOLIS        N/A     91  77  62 NE2       30.00F HX 105
MONCKS CORNER  NOT AVBL
SUMMERVILLE    FAIR      95  75  52 S5        30.06F HX 107
BEAUFORT MCAS  PTSUNNY   92  76  59 SW8       30.05F HX 104
6HR MIN TEMP:  78; 6HR MAX TEMP:  95;

BEAUFORT ARPT  FAIR      88  77  70 SE9       30.06F HX 100
HILTON HEAD IS SUNNY     86  77  74 S8        30.08F HX  97
GEORGETOWN     NOT AVBL
WALTERBORO     RAIN      90  72  55 SE5       30.06F HX  96
ORANGEBURG     MOSUNNY   91  73  55 VRB5      30.06F HX  99
6HR MIN TEMP:  76; 6HR MAX TEMP:  92;

BARNWELL       FAIR      91  73  55 CALM      30.06F HX 100
AIKEN          FAIR      93  70  46 SE6       30.10F HX  99
MANNING        FAIR      93  75  55 SW6       30.05F HX 104
KINGSTREE      NOT AVBL
COLUMBIA       MOSUNNY   95  66  38 SW6       30.04F HX  98
6HR MIN TEMP:  76; 6HR MAX TEMP:  96;

SUMTER         SUNNY     95  70  44 S8        30.04F HX 101
6HR MIN TEMP:  76; 6HR MAX TEMP:  95;

FLORENCE       MOSUNNY   96  72  45 S9        30.04F HX 104
6HR MIN TEMP:  76; 6HR MAX TEMP:  96;

MYRTLE BEACH   MOSUNNY   90  75  62 S12       30.08S HX 100
N MYRTLE BEACH SUNNY     88  77  69 S13       30.08S HX 100
6HR MIN TEMP:  77; 6HR MAX TEMP:  89;


$$

GAZ063-065-086>088-099>101-113>116-118-119-134-136>141-150-021900-
...GEORGIA...

CITY           SKY/WX    TMP DP  RH WIND       PRES   REMARKS
SAVANNAH ARPT  TSTM      82  75  78 S13G24    30.07S
6HR MIN TEMP:  78; 6HR MAX TEMP:  96;

HUNTER AAF     MOSUNNY   92  76  60 S9        30.04F THUNDER HX 104
6HR MIN TEMP:  77; 6HR MAX TEMP:  92;

FORT STEWART   CLOUDY    91  75  58 E16G24    30.03F THUNDER HX 101
6HR MIN TEMP:  75; 6HR MAX TEMP:  95; 6HR PCP: TRACE;

STATESBORO     NOT AVBL
SYLVANIA       CLOUDY    92  75  57 NE17G23   30.06F THUNDER HX 102
CLAXTON        FAIR      90  77  66 W8        30.05F THUNDER HX 102
THOMSON        SUNNY     93  77  60 NW6       30.11F HX 107
AUGUSTA-BUSH   SUNNY     93  73  52 VRB7      30.05F HX 102
6HR MIN TEMP:  75; 6HR MAX TEMP:  93; 6HR PCP: TRACE;

AUGUSTA-DANIEL SUNNY     93  70  46 NW6       30.08F HX  99
SWAINSBORO     FAIR      91  77  62 S5        30.07F HX 105
VIDALIA          N/A     88  73  62 N5        30.08F HX  96
ALMA           SUNNY     91  72  53 NW3       30.06F HX  98
6HR MIN TEMP:  75; 6HR MAX TEMP:  92;

WAYCROSS       SUNNY     94  76  54 N3        30.06F HX 107
JESUP            N/A     91  77  62 NW10      30.05F HX 105
BRUNSWICK      MOSUNNY   91  72  52 SE10G16   30.06F THUNDER HX  98
SAINT SIMONS   MOSUNNY   88  76  67 SE14      30.07F HX  99
6HR MIN TEMP:  79; 6HR MAX TEMP:  90;


$$

SCZ027-028-034-036>038-045-046-048>050-GAZ119-141-021900-
...LAKE AND SUPPLEMENTAL COASTAL OBSERVATIONS...

STATION/POSITION TIME  TEMP    WIND        PRES    WAVE   SWELL
                       AIR SEA DIR/SP/G            HT/PER HT/PER/DIR
                 (UTC) (F)     (DEG/KT/KT) (MB)    (FT/S) (FT/S/D)
UPR LAKE MARION  NOT AVBL
WINYAH BAY       1700   85     140/  8     1018.0S
LAKE MURRAY      1700   89     190/  6/  7 1016.9F
ACE BASIN NERRS  1700   90     180/  2     1019.0S
FORT PULASKI     1800   86     140/  9/ 13 1018.6F
SAPELO ISLAND    1700   93     140/  7     1020.0S

$$

ANZ835-935-AMZ111-154-330-350-352-354-374-450-454-472-021900-
...C-MAN AND BUOY OBSERVATIONS...

STATION/POSITION TIME  TEMP    WIND        PRES    WAVE   SWELL
                       AIR SEA DIR/SP/G            HT/PER HT/PER/DIR
                 (UTC) (F)     (DEG/KT/KT) (MB)    (FT/S) (FT/S/D)
FOLLY BEACH CMAN 1700   85     180/ 11/ 12 1019.4R
BUOY 41004       1800   82 84  170/ 12/ 16 1018.5F   2/ 9   2/ 9
BUOY 41008       1800   83 85  160/ 10/ 12 1018.7F   2/ 8   2/100/ 8
5E ST. MARYS GA  1800      85                N/A     2/ 8
FRYING PAN BUOY  NOT AVBL
BUOY 41025       1800   81     200/ 16/ 17 1017.6F   3/ 5   2/110/ 9
CAPE LOOKOUT NC  1700   83     210/ 10/ 12 1018.5R
BUOY 41002       1710   82 84  200/  8/  8 1020.9F   3/12   3/ 80/12
BUOY 41010       1700   83 85  100/  8/  8 1019.7R
BUOY 41012       NOT AVBL
ST AUGUSTINE FL  1800   83     130/ 12/ 12 1019.6F
CAPERS NEARSHORE 1700   84     180/ 12/ 14   N/A
FRIPP NEARSHORE  NOT AVBL


$$



USA.gov is the U.S. government's official web portal to all federal, state and local government web resources and services.